Preview of NWS' New Version of Forecast
This preview is not operational and should not be used for support decisions.

Regional Weather Roundup (RWR)

Issued by Glasgow, MT (GGW)

                            
000
ASUS45 KGGW 201315
RWRGGW
HOURLY REGIONAL WEATHER ROUNDUP FOR NORTHEAST MONTANA
NATIONAL WEATHER SERVICE GLASGOW MONTANA
700 AM MDT MON MAY 20 2019

NOTE: "FAIR" INDICATES FEW OR NO CLOUDS BELOW 12,000 FEET WITH NO
SIGNIFICANT WEATHER AND/OR OBSTRUCTIONS TO VISISBILITY.

NORTHEAST MONTANA

  
CITY           SKY/WX    TMP DP  RH WIND       PRES   REMARKS
GLASGOW        SUNNY     42  30  62 E12       30.05S                  
PLENTYWOOD       N/A     44  26  49 E13         N/A                   
WOLF POINT     CLOUDY    41  35  79 E7        30.09R                  
JORDAN           N/A     37  32  82 E7        30.02F                  
WINNETT          N/A     38  33  82 E6          N/A                   
SIDNEY         CLOUDY    43  37  79 N3        30.11R                  
GLENDIVE       CLOUDY    36  33  89 E5        30.09R                  
MALTA            N/A     35  35 100 E2          N/A                   

FORT PECK REPORTS

  
CITY           SKY/WX    TMP DP  RH WIND       PRES   REMARKS
FORT PECK        N/A     42  35  76 E8          N/A                   
THE PINES        N/A     41  33  73 E3          N/A                   

SOUTHEAST MONTANA

  
CITY           SKY/WX    TMP DP  RH WIND       PRES   REMARKS
BILLINGS       CLOUDY    39  34  82 NE12      29.90F                  
MILES CITY     CLOUDY    43  34  70 E8        30.02S                  
BAKER          MOSUNNY   33  31  92 SE9       30.07S                  
LIVINGSTON     CLOUDY    34  32  92 E20       29.85R                  

CENTRAL MONTANA

  
CITY           SKY/WX    TMP DP  RH WIND       PRES   REMARKS
HAVRE          CLOUDY    35  32  88 E10       30.01S                  
LEWISTOWN      CLOUDY    35  28  75 E12       29.92S                  
GREAT FALLS    CLOUDY    37  33  85 NE9       29.89S                  
CUT BANK       CLOUDY    36  30  79 E12       29.93S                  
HELENA         CLOUDY    41  32  70 NE3       29.85R                  
BUTTE          CLOUDY    35  27  72 S10       29.81S                  
BOZEMAN        CLOUDY    39  29  67 NE15G23   29.83R                  

WESTERN MONTANA

  
CITY           SKY/WX    TMP DP  RH WIND       PRES   REMARKS
MISSOULA       CLOUDY    46  29  51 E12G18    29.79S                  
KALISPELL      NOT AVBL                                               

NORTH DAKOTA

  
CITY           SKY/WX    TMP DP  RH WIND       PRES   REMARKS
WILLISTON      PTSUNNY   42  34  73 N5        30.12R                  
DICKINSON      NOT AVBL                                               
MINOT          SUNNY     44  31  60 CALM      30.15R                  
BISMARCK       MOSUNNY   41  37  86 CALM      30.15R                  

SOUTHERN SASKATCHEWAN

  
CITY           SKY/WX    TMP DP  RH WIND       PRES   REMARKS
REGINA         PTSUNNY   43  32  65 SE12      30.17R                  
ESTEVAN        SUNNY     43  34  70 E9        30.15S                  
SWIFT CURRENT  SUNNY     39  27  60 E6        30.07S